Location: El Manguito
(10.2358°N, 67.3634°W)
Time: 00:25:57
(UTC+00:00)

USA 215 - Pass Details

Date: 11 December 2024
Orbit: 1099 x 1108 km, 123.0° (Epoch: 15 January)

Event Time Altitude Azimuth Distance (km) Brightness Sun altitude
Rises 23:02:32 0° 120° (ESE) 3,916 5.8 -13.0°
Reaches altitude 10° 23:05:17 10° 110° (ESE) 2,957 5.1 -13.6°
Maximum altitude 23:10:57 32° 50° (NE) 1,776 3.9 -14.9°
Drops below altitude 10° 23:16:36 10° 349° (N) 2,950 5.4 -16.2°
Sets 23:19:20 0° 340° (NNW) 3,906 6.1 -16.8°
